Regional Weather Roundup
Issued by NWS

Home | Current Version | Previous Version | Graphics & Text | Print | Product List | Glossary On
Versions: 1 2 3 4 5 6 7 8 9 10 11 12 13 14 15 16 17 18 19 20 21 22 23 24 25 26 27
000
ASUS45 KSLC 191310
RWRUT

UTAH REGIONAL WEATHER ROUNDUP
NATIONAL WEATHER SERVICE SALT LAKE CITY UT
600 AM MST SUN FEB 19 2017

UTZ001>011-023>025-191400-

NORTHERN UTAH

CITY           SKY/WX    TMP DP  RH WIND       PRES   REMARKS
BRIGHAM CITY     N/A     42  39  89 SE6       29.65R
HILL AFB       LGT RAIN  41  39  93 NW7       29.65R
LOGAN          LGT RAIN  44  38  79 SE14      29.63R
OGDEN          LGT RAIN  41  40  96 SW5       29.64R FOG
SALT LAKE CITY LGT RAIN  48  39  71 S8        29.63R
TOOELE VALLEY  RAIN      45  41  87 S20       29.64R
WENDOVER       CLEAR     37  32  81 N5        29.61R WCI  34
HEBER CITY     CLOUDY    43  32  65 SW5       29.65S
WEST JORDAN    CLOUDY    48  44  85 S13       29.64R

$$

UTZ011>015-024>027-191400-

CENTRAL/NORTHEAST UTAH

CITY           SKY/WX    TMP DP  RH WIND       PRES   REMARKS
PROVO AIRPORT  LGT RAIN  45  36  70 SE6       29.66S
MOAB/CANYONLAN MOCLDY    37  37 100 CALM      29.69S
DELTA          CLOUDY    43  36  75 S10       29.67S
PRICE          CLOUDY    36  35  96 NE3       29.71S
RICHFIELD      PTCLDY    34  34 100 CALM      29.68S
ROOSEVELT      CLOUDY    36  34  93 CALM      29.75S
VERNAL         LGT RAIN  34  34 100 NW3       29.72F FOG

$$

UTZ013>016-019>022-027-191400-

SOUTHERN UTAH

CITY           SKY/WX    TMP DP  RH WIND       PRES   REMARKS
BRYCE CANYON   FOG       33  32  96 S6        29.72S VSB 1/4 WCI  28
CEDAR CITY     CLOUDY    38  36  92 W6        29.69R WCI  33
MILFORD        CLOUDY    41  37  86 S12       29.68R
ST GEORGE      CLOUDY    46  46 100 SW7       29.72R
HANKSVILLE     CLOUDY    37  37 100 CALM      29.73F
KANAB          CLOUDY    41  41 100 S3        29.77R
BLANDING       CLOUDY    39  37  95 SE14      29.81S WCI  30

$$

REGIONAL REPORTS     COLORADO/ARIZONA

CITY           SKY/WX    TMP DP  RH WIND       PRES   REMARKS
CRAIG, CO      CLOUDY    28  25  88 CALM      29.75F
GRAND JUNCTION CLOUDY    37  35  92 E9        29.69F WCI  30
RIFLE, CO      CLOUDY    30  28  92 E5        29.74F WCI  25
MONTROSE, CO   CLOUDY    30  28  92 SE6       29.75F WCI  24
CORTEZ, CO     LGT RAIN  41  36  82 S5        29.77R
COLORADO CITY  CLOUDY    43  41  93 SE3       29.77R
PAGE, AZ       LGT RAIN  44  37  76 SE5       29.71R
GRAND CANYON   LGT SNOW  32  32 100 SW9       29.78R FOG     WCI  24
KINGMAN, AZ    PTCLDY    42  39  89 E5        29.76R
FLAGSTAFF, AZ  LGT SNOW  29  28  96 W6        29.79R FOG     WCI  23

$$

REGIONAL REPORTS    NEVADA/IDAHO/WYOMING

CITY           SKY/WX    TMP DP  RH WIND       PRES   REMARKS
LAS VEGAS, NV  PTCLDY    49  44  83 S7        29.70R
ELY, NY        CLOUDY    35  33  92 SW8       29.67R WCI  29
ELKO, NV       MOCLDY    36  32  85 CALM      29.62R
POCATELLO, ID  CLOUDY    38  34  85 SE6       29.60R WCI  33
BURLEY, ID     LGT RAIN  42  35  76 SW13      29.58R
FORT BRIDGER,  PTSUNNY   33  31  95 S3        29.67S
EVANSTON, WY   CLOUDY    35  28  75 SW13      29.64S WCI  26
ROCK SPRINGS,  CLOUDY    39  30  70 S25G35    29.64F WCI  28
KEMMERER, WY     N/A     32  30  93 S3        29.65F

$$




USA.gov is the U.S. government's official web portal to all federal, state and local government web resources and services.